TimeGMT,TemperatureF,Dew PointF,Humidity,Sea Level PressureIn,VisibilityMPH,Wind Direction,Wind SpeedMPH,Gust SpeedMPH,PrecipitationIn,Events,Conditions,WindDirDegrees,DateUTC
12:00 AM,47,43,81,29.81,12,South,8.9,,,,Partly Cloudy,190,2013-11-01 00:00:00
12:00 AM,46.4,42.8,87,29.80,6.2,South,9.2,-,N/A,,Scattered Clouds,190,2013-11-01 00:00:00
12:30 AM,46.4,42.8,87,29.80,6.2,South,9.2,-,N/A,,Mostly Cloudy,180,2013-11-01 00:30:00
1:00 AM,48.2,42.8,82,29.80,6.2,South,10.4,-,N/A,,Mostly Cloudy,190,2013-11-01 01:00:00
1:30 AM,48.2,42.8,82,29.77,6.2,South,12.7,-,N/A,,Mostly Cloudy,180,2013-11-01 01:30:00
2:00 AM,50.0,42.8,76,29.77,6.2,South,12.7,-,N/A,,Mostly Cloudy,190,2013-11-01 02:00:00
2:30 AM,50.0,42.8,76,29.77,6.2,SSW,10.4,-,N/A,,Mostly Cloudy,200,2013-11-01 02:30:00
3:00 AM,50.0,42.8,76,29.77,6.2,SSW,10.4,-,N/A,,Mostly Cloudy,210,2013-11-01 03:00:00
3:30 AM,48.2,42.8,82,29.77,6.2,South,9.2,-,N/A,,Mostly Cloudy,190,2013-11-01 03:30:00
4:00 AM,46.4,42.8,87,29.74,6.2,South,9.2,-,N/A,,Mostly Cloudy,190,2013-11-01 04:00:00
4:30 AM,46.4,42.8,87,29.74,6.2,South,8.1,-,N/A,,Mostly Cloudy,190,2013-11-01 04:30:00
5:00 AM,46.4,42.8,87,29.74,6.2,South,8.1,-,N/A,,Mostly Cloudy,190,2013-11-01 05:00:00
5:30 AM,46.4,42.8,87,29.74,6.2,South,8.1,-,N/A,,Scattered Clouds,190,2013-11-01 05:30:00
6:00 AM,47,43,81,29.75,12,South,6.7,,,,Partly Cloudy,190,2013-11-01 06:00:00
6:00 AM,46.4,42.8,87,29.74,6.2,South,6.9,-,N/A,,Scattered Clouds,190,2013-11-01 06:00:00
6:30 AM,48.2,42.8,82,29.74,6.2,SSW,5.8,-,N/A,,Scattered Clouds,200,2013-11-01 06:30:00
7:00 AM,48.2,42.8,82,29.74,6.2,SSW,4.6,-,N/A,,Mostly Cloudy,210,2013-11-01 07:00:00
7:30 AM,46.4,42.8,87,29.74,6.2,South,6.9,-,N/A,,Mostly Cloudy,190,2013-11-01 07:30:00
8:00 AM,48.2,42.8,82,29.74,6.2,South,6.9,-,N/A,,Scattered Clouds,190,2013-11-01 08:00:00
8:30 AM,48.2,42.8,82,29.74,6.2,South,5.8,-,N/A,,Partly Cloudy,180,2013-11-01 08:30:00
9:00 AM,48.2,42.8,82,29.74,6.2,SW,4.6,-,N/A,,Partly Cloudy,220,2013-11-01 09:00:00
9:30 AM,48.2,44.6,87,29.74,6.2,South,6.9,-,N/A,,Scattered Clouds,170,2013-11-01 09:30:00
10:00 AM,50.0,44.6,82,29.74,6.2,SSW,8.1,-,N/A,,Scattered Clouds,210,2013-11-01 10:00:00
10:30 AM,51.8,44.6,76,29.71,6.2,SSW,9.2,-,N/A,,Scattered Clouds,200,2013-11-01 10:30:00
11:00 AM,51.8,42.8,71,29.71,6.2,SW,9.2,-,N/A,,Scattered Clouds,230,2013-11-01 11:00:00
11:30 AM,53.6,44.6,72,29.71,6.2,WSW,5.8,-,N/A,,Mostly Cloudy,240,2013-11-01 11:30:00
12:00 PM,52,43,63,29.73,19,West,11.2,,,,Partly Cloudy,260,2013-11-01 12:00:00
12:00 PM,51.8,42.8,71,29.71,6.2,West,10.4,-,N/A,,Scattered Clouds,260,2013-11-01 12:00:00
12:30 PM,53.6,42.8,67,29.71,6.2,West,10.4,-,N/A,,Scattered Clouds,270,2013-11-01 12:30:00
1:00 PM,55.4,42.8,63,29.71,6.2,WNW,10.4,-,N/A,,Scattered Clouds,290,2013-11-01 13:00:00
1:30 PM,53.6,42.8,67,29.71,6.2,West,10.4,-,N/A,,Partly Cloudy,260,2013-11-01 13:30:00
2:00 PM,53.6,41.0,62,29.68,6.2,WNW,10.4,-,N/A,,Scattered Clouds,290,2013-11-01 14:00:00
2:30 PM,53.6,41.0,62,29.68,6.2,WNW,9.2,-,N/A,,Mostly Cloudy,290,2013-11-01 14:30:00
3:00 PM,53.6,42.8,67,29.65,6.2,WNW,9.2,-,N/A,,Partly Cloudy,300,2013-11-01 15:00:00
3:30 PM,51.8,44.6,76,29.65,6.2,WNW,8.1,-,N/A,,Mostly Cloudy,290,2013-11-01 15:30:00
4:00 PM,51.8,41.0,67,29.65,6.2,WNW,8.1,-,N/A,,Scattered Clouds,300,2013-11-01 16:00:00
4:30 PM,50.0,41.0,71,29.65,6.2,WNW,5.8,-,N/A,,Scattered Clouds,300,2013-11-01 16:30:00
5:00 PM,48.2,41.0,76,29.65,6.2,WNW,4.6,-,N/A,,Scattered Clouds,290,2013-11-01 17:00:00
5:30 PM,46.4,41.0,81,29.65,6.2,West,1.2,-,N/A,,Scattered Clouds,280,2013-11-01 17:30:00
6:00 PM,45,41,80,29.68,16,WSW,2.2,,,,Scattered Clouds,240,2013-11-01 18:00:00
6:00 PM,44.6,41.0,87,29.65,6.2,WSW,2.3,-,N/A,,Scattered Clouds,240,2013-11-01 18:00:00
6:30 PM,44.6,41.0,87,29.65,6.2,SW,1.2,-,N/A,,Scattered Clouds,230,2013-11-01 18:30:00
7:00 PM,42.8,41.0,93,29.65,6.2,Calm,Calm,-,N/A,,Mostly Cloudy,0,2013-11-01 19:00:00
7:30 PM,44.6,41.0,87,29.65,6.2,East,1.2,-,N/A,,Mostly Cloudy,100,2013-11-01 19:30:00
8:00 PM,46.4,42.8,87,29.65,6.2,South,3.5,-,N/A,,Mostly Cloudy,170,2013-11-01 20:00:00
8:30 PM,46.4,42.8,87,29.62,6.2,SE,3.5,-,N/A,,Mostly Cloudy,130,2013-11-01 20:30:00
9:00 PM,44.6,42.8,93,29.62,6.2,SE,6.9,-,N/A,,Scattered Clouds,130,2013-11-01 21:00:00
9:30 PM,44.6,41.0,87,29.62,6.2,ESE,6.9,-,N/A,,Scattered Clouds,110,2013-11-01 21:30:00
10:00 PM,44.6,41.0,87,29.62,6.2,ESE,6.9,-,N/A,,Partly Cloudy,120,2013-11-01 22:00:00
10:30 PM,42.8,41.0,93,29.62,6.2,ESE,6.9,-,N/A,,Partly Cloudy,120,2013-11-01 22:30:00
11:00 PM,42.8,41.0,93,29.59,6.2,SE,6.9,-,N/A,,Scattered Clouds,130,2013-11-01 23:00:00
11:30 PM,42.8,41.0,93,29.59,6.2,ESE,6.9,-,N/A,,Mostly Cloudy,110,2013-11-01 23:30:00